| time (UTC) | temp C | wind direction | speed KPH | gust KPH | rain 1hr cm | rain 24hr cm | rain mn cm | humidity % | barometer mb |
| 20260507155921 | 12 | 302 | 6.4 | 12.9 | 0.00 | 0.00 | 0.00 | 85 | 1019.5 |
| 20260507155428 | 12 | 256 | 4.8 | 12.9 | 0.00 | 0.00 | 0.00 | 85 | 1019.5 |
| 20260507154931 | 12 | 196 | 6.4 | 14.5 | 0.00 | 0.00 | 0.00 | 85 | 1019.4 |
| 20260507154436 | 12 | 233 | 6.4 | 14.5 | 0.00 | 0.00 | 0.00 | 85 | 1019.5 |
| 20260507153923 | 12 | 360 | 4.8 | 11.3 | 0.00 | 0.00 | 0.00 | 86 | 1019.5 |
| 20260507153500 | 12 | 201 | 3.2 | 9.7 | 0.00 | 0.00 | 0.00 | 86 | 1019.5 |
| 20260507152955 | 12 | 268 | 3.2 | 9.7 | 0.00 | 0.00 | 0.00 | 86 | 1019.6 |
| 20260507152421 | 12 | 261 | 4.8 | 11.3 | 0.00 | 0.00 | 0.00 | 86 | 1019.5 |
| 20260507151931 | 12 | 254 | 6.4 | 9.7 | 0.00 | 0.00 | 0.00 | 86 | 1019.5 |
| 20260507151432 | 11 | 14 | 3.2 | 14.5 | 0.00 | 0.00 | 0.00 | 86 | 1019.5 |
| 20260507150936 | 11 | 265 | 6.4 | 14.5 | 0.00 | 0.00 | 0.00 | 86 | 1019.4 |
| 20260507150423 | 11 | 263 | 8.0 | 16.1 | 0.00 | 0.00 | 0.00 | 86 | 1019.5 |
| 20260507145929 | 11 | 263 | 6.4 | 11.3 | 0.00 | 0.00 | 0.00 | 86 | 1019.5 |
| 20260507145435 | 11 | 151 | 3.2 | 9.7 | 0.00 | 0.00 | 0.00 | 86 | 1019.5 |
| 20260507144921 | 11 | 211 | 4.8 | 9.7 | 0.00 | 0.00 | 0.00 | 86 | 1019.4 |
| 20260507144449 | 11 | 290 | 3.2 | 8.0 | 0.00 | 0.00 | 0.00 | 87 | 1019.4 |
| 20260507143929 | 11 | 327 | 3.2 | 9.7 | 0.00 | 0.00 | 0.00 | 86 | 1019.4 |
| 20260507143437 | 11 | 45 | 1.6 | 9.7 | 0.00 | 0.00 | 0.00 | 86 | 1019.4 |
| 20260507142921 | 11 | 295 | 3.2 | 12.9 | 0.00 | 0.00 | 0.00 | 86 | 1019.4 |
| 20260507142458 | 11 | 294 | 4.8 | 12.9 | 0.00 | 0.00 | 0.00 | 86 | 1019.4 |
| 20260507141942 | 11 | 313 | 1.6 | 11.3 | 0.00 | 0.00 | 0.00 | 86 | 1019.3 |
| 20260507141446 | 11 | 177 | 1.6 | 20.9 | 0.00 | 0.00 | 0.00 | 86 | 1019.3 |
| 20260507140957 | 11 | 254 | 8.0 | 14.5 | 0.00 | 0.00 | 0.00 | 86 | 1019.3 |
| 20260507140423 | 11 | 240 | 6.4 | 16.1 | 0.00 | 0.00 | 0.00 | 87 | 1019.2 |
| 20260507135930 | 11 | 314 | 6.4 | 16.1 | 0.00 | 0.00 | 0.00 | 87 | 1019.2 |
| 20260507135437 | 11 | 300 | 6.4 | 11.3 | 0.00 | 0.00 | 0.00 | 87 | 1019.1 |
| 20260507134923 | 11 | 262 | 4.8 | 9.7 | 0.00 | 0.00 | 0.00 | 87 | 1019.0 |
| 20260507134431 | 11 | 257 | 3.2 | 9.7 | 0.00 | 0.00 | 0.00 | 87 | 1019.0 |
| 20260507133939 | 11 | 159 | 3.2 | 17.7 | 0.00 | 0.00 | 0.00 | 87 | 1019.0 |
| 20260507133442 | 11 | 294 | 9.7 | 17.7 | 0.00 | 0.00 | 0.00 | 86 | 1019.0 |
| 20260507132929 | 11 | 316 | 6.4 | 8.0 | 0.00 | 0.00 | 0.00 | 86 | 1019.0 |
| 20260507132435 | 11 | 313 | 3.2 | 12.9 | 0.00 | 0.00 | 0.00 | 86 | 1019.0 |
| 20260507131944 | 11 | 347 | 4.8 | 17.7 | 0.00 | 0.00 | 0.00 | 86 | 1018.9 |
| 20260507131419 | 11 | 222 | 8.0 | 17.7 | 0.00 | 0.00 | 0.00 | 86 | 1018.9 |
| 20260507130926 | 11 | 1 | 4.8 | 17.7 | 0.00 | 0.00 | 0.00 | 86 | 1018.8 |
| 20260507130434 | 11 | 275 | 6.4 | 17.7 | 0.00 | 0.00 | 0.00 | 86 | 1018.8 |
| 20260507125939 | 11 | 270 | 6.4 | 17.7 | 0.00 | 0.00 | 0.00 | 86 | 1018.8 |
| 20260507125426 | 11 | 285 | 8.0 | 16.1 | 0.00 | 0.00 | 0.00 | 86 | 1018.7 |
| 20260507124936 | 11 | 289 | 4.8 | 11.3 | 0.00 | 0.00 | 0.00 | 86 | 1018.8 |
| 20260507124456 | 11 | 258 | 3.2 | 11.3 | 0.00 | 0.00 | 0.00 | 86 | 1018.8 |
| 20260507123924 | 11 | 360 | 4.8 | 12.9 | 0.00 | 0.00 | 0.00 | 86 | 1018.8 |
| 20260507123453 | 11 | 282 | 4.8 | 12.9 | 0.00 | 0.00 | 0.00 | 86 | 1018.8 |
| 20260507122921 | 11 | 245 | 6.4 | 19.3 | 0.00 | 0.00 | 0.00 | 86 | 1018.7 |
| 20260507122423 | 11 | 308 | 11.3 | 19.3 | 0.00 | 0.00 | 0.00 | 86 | 1018.8 |
| 20260507121933 | 11 | 289 | 6.4 | 14.5 | 0.00 | 0.00 | 0.00 | 86 | 1018.8 |
| 20260507121422 | 11 | 278 | 8.0 | 14.5 | 0.00 | 0.00 | 0.00 | 86 | 1018.7 |
| 20260507120931 | 11 | 317 | 8.0 | 12.9 | 0.00 | 0.00 | 0.00 | 86 | 1018.7 |
| 20260507120438 | 11 | 268 | 6.4 | 12.9 | 0.00 | 0.00 | 0.00 | 86 | 1018.7 |
| 20260507115924 | 11 | 275 | 6.4 | 12.9 | 0.00 | 0.00 | 0.00 | 86 | 1018.7 |
| 20260507115431 | 11 | 244 | 6.4 | 17.7 | 0.00 | 0.00 | 0.00 | 86 | 1018.8 |
| 20260507114939 | 11 | 290 | 6.4 | 19.3 | 0.00 | 0.00 | 0.00 | 86 | 1018.9 |
| 20260507114421 | 12 | 278 | 11.3 | 19.3 | 0.00 | 0.00 | 0.00 | 86 | 1018.9 |
| 20260507113928 | 12 | 259 | 3.2 | 14.5 | 0.00 | 0.00 | 0.00 | 86 | 1018.9 |
| 20260507113434 | 12 | 359 | 4.8 | 17.7 | 0.00 | 0.00 | 0.00 | 86 | 1018.9 |
| 20260507112949 | 12 | 276 | 8.0 | 17.7 | 0.00 | 0.00 | 0.00 | 86 | 1018.9 |
| 20260507112435 | 12 | 273 | 3.2 | 17.7 | 0.00 | 0.00 | 0.00 | 86 | 1019.0 |
| 20260507111922 | 12 | 275 | 4.8 | 11.3 | 0.00 | 0.00 | 0.00 | 86 | 1019.0 |
| 20260507111453 | 12 | 342 | 3.2 | 9.7 | 0.00 | 0.00 | 0.00 | 86 | 1018.9 |
| 20260507110936 | 12 | 268 | 1.6 | 8.0 | 0.00 | 0.00 | 0.00 | 86 | 1019.0 |
| 20260507110420 | 12 | 88 | 3.2 | 11.3 | 0.00 | 0.00 | 0.00 | 86 | 1018.9 |
| 20260507105926 | 12 | 222 | 4.8 | 11.3 | 0.00 | 0.00 | 0.00 | 86 | 1019.0 |
| 20260507105434 | 12 | 343 | 6.4 | 16.1 | 0.00 | 0.00 | 0.00 | 86 | 1019.0 |
| 20260507104941 | 12 | 1 | 6.4 | 16.1 | 0.00 | 0.00 | 0.00 | 86 | 1018.9 |
| 20260507104449 | 12 | 359 | 6.4 | 16.1 | 0.00 | 0.00 | 0.00 | 86 | 1018.9 |
| 20260507103959 | 12 | 228 | 6.4 | 16.1 | 0.00 | 0.00 | 0.00 | 86 | 1019.0 |
| 20260507103446 | 12 | 222 | 6.4 | 14.5 | 0.00 | 0.00 | 0.00 | 86 | 1019.0 |
| 20260507102930 | 12 | 322 | 3.2 | 17.7 | 0.00 | 0.00 | 0.00 | 86 | 1019.1 |
| 20260507102437 | 12 | 270 | 4.8 | 17.7 | 0.00 | 0.00 | 0.00 | 86 | 1019.1 |
| 20260507101946 | 12 | 316 | 4.8 | 12.9 | 0.00 | 0.00 | 0.00 | 86 | 1019.1 |
| 20260507101453 | 11 | 27 | 4.8 | 12.9 | 0.00 | 0.00 | 0.00 | 86 | 1019.1 |
| 20260507100935 | 11 | 305 | 3.2 | 9.7 | 0.00 | 0.00 | 0.00 | 86 | 1019.0 |
| 20260507100451 | 11 | 107 | 3.2 | 14.5 | 0.00 | 0.00 | 0.00 | 86 | 1019.0 |
| 20260507095936 | 11 | 245 | 8.0 | 14.5 | 0.00 | 0.00 | 0.00 | 86 | 1018.9 |
| 20260507095421 | 12 | 268 | 6.4 | 11.3 | 0.00 | 0.00 | 0.00 | 86 | 1018.9 |
| 20260507094927 | 11 | 285 | 4.8 | 11.3 | 0.00 | 0.00 | 0.00 | 86 | 1018.9 |
| 20260507094434 | 11 | 292 | 1.6 | 17.7 | 0.00 | 0.00 | 0.00 | 86 | 1019.0 |
| 20260507093921 | 11 | 178 | 8.0 | 17.7 | 0.00 | 0.00 | 0.00 | 86 | 1018.9 |
| 20260507093444 | 12 | 272 | 8.0 | 20.9 | 0.00 | 0.00 | 0.00 | 86 | 1018.9 |
| 20260507092959 | 12 | 287 | 6.4 | 20.9 | 0.00 | 0.00 | 0.00 | 86 | 1018.9 |
| 20260507092425 | 12 | 294 | 6.4 | 22.5 | 0.00 | 0.00 | 0.00 | 86 | 1018.9 |
| 20260507091934 | 12 | 273 | 9.7 | 27.4 | 0.00 | 0.00 | 0.00 | 86 | 1018.8 |
| 20260507091418 | 12 | 271 | 11.3 | 27.4 | 0.00 | 0.00 | 0.00 | 86 | 1018.9 |
| 20260507090925 | 12 | 286 | 8.0 | 16.1 | 0.00 | 0.00 | 0.00 | 86 | 1019.0 |
| 20260507090432 | 12 | 224 | 9.7 | 24.1 | 0.00 | 0.00 | 0.00 | 86 | 1018.9 |
| 20260507085936 | 12 | 285 | 12.9 | 24.1 | 0.00 | 0.00 | 0.00 | 86 | 1019.0 |
| 20260507085439 | 12 | 313 | 6.4 | 22.5 | 0.00 | 0.00 | 0.00 | 86 | 1018.9 |
| 20260507084955 | 12 | 264 | 6.4 | 19.3 | 0.00 | 0.00 | 0.00 | 86 | 1019.0 |
| 20260507084437 | 12 | 232 | 8.0 | 16.1 | 0.00 | 0.00 | 0.00 | 86 | 1019.0 |
| 20260507083924 | 12 | 290 | 8.0 | 20.9 | 0.00 | 0.00 | 0.00 | 86 | 1019.2 |
| 20260507083429 | 12 | 275 | 9.7 | 20.9 | 0.00 | 0.00 | 0.00 | 86 | 1019.2 |
| 20260507082933 | 12 | 292 | 6.4 | 20.9 | 0.00 | 0.00 | 0.00 | 86 | 1019.3 |
| 20260507082434 | 12 | 195 | 9.7 | 20.9 | 0.00 | 0.00 | 0.00 | 86 | 1019.4 |
| 20260507081919 | 12 | 313 | 6.4 | 11.3 | 0.00 | 0.00 | 0.00 | 86 | 1019.5 |
| 20260507081428 | 12 | 34 | 1.6 | 8.0 | 0.00 | 0.00 | 0.00 | 86 | 1019.5 |
| 20260507080937 | 12 | 268 | 3.2 | 9.7 | 0.00 | 0.00 | 0.00 | 86 | 1019.5 |
| 20260507080422 | 12 | 360 | 4.8 | 12.9 | 0.00 | 0.00 | 0.00 | 86 | 1019.5 |
| 20260507075949 | 12 | 177 | 1.6 | 12.9 | 0.00 | 0.00 | 0.00 | 86 | 1019.5 |
| 20260507075430 | 12 | 216 | 8.0 | 12.9 | 0.00 | 0.00 | 0.00 | 86 | 1019.4 |
| 20260507074933 | 12 | 292 | 8.0 | 12.9 | 0.00 | 0.00 | 0.00 | 86 | 1019.5 |
| 20260507074420 | 12 | 298 | 6.4 | 12.9 | 0.00 | 0.00 | 0.00 | 86 | 1019.5 |
| 20260507073927 | 12 | 116 | 1.6 | 9.7 | 0.00 | 0.00 | 0.00 | 86 | 1019.5 |
| 20260507073434 | 12 | 301 | 3.2 | 9.7 | 0.00 | 0.00 | 0.00 | 86 | 1019.4 |
| 20260507072922 | 12 | 151 | 4.8 | 11.3 | 0.00 | 0.00 | 0.00 | 86 | 1019.5 |
| 20260507072428 | 12 | 45 | 3.2 | 11.3 | 0.00 | 0.00 | 0.00 | 87 | 1019.5 |
| 20260507071935 | 12 | 237 | 4.8 | 11.3 | 0.00 | 0.00 | 0.00 | 87 | 1019.5 |
| 20260507071420 | 12 | 215 | 3.2 | 14.5 | 0.00 | 0.00 | 0.00 | 87 | 1019.4 |
| 20260507070922 | 12 | 282 | 6.4 | 12.9 | 0.00 | 0.00 | 0.00 | 86 | 1019.4 |
| 20260507070429 | 12 | 278 | 4.8 | 24.1 | 0.00 | 0.00 | 0.00 | 86 | 1019.4 |
| 20260507065938 | 12 | 360 | 3.2 | 24.1 | 0.00 | 0.00 | 0.00 | 86 | 1019.4 |
| 20260507065425 | 12 | 257 | 8.0 | 16.1 | 0.00 | 0.00 | 0.00 | 86 | 1019.4 |
| 20260507064934 | 12 | 138 | 6.4 | 24.1 | 0.00 | 0.00 | 0.00 | 87 | 1019.3 |
| 20260507064420 | 12 | 230 | 9.7 | 30.6 | 0.00 | 0.00 | 0.00 | 87 | 1019.3 |
| 20260507063928 | 12 | 257 | 14.5 | 30.6 | 0.00 | 0.00 | 0.00 | 87 | 1019.3 |
| 20260507063431 | 12 | 247 | 11.3 | 22.5 | 0.00 | 0.00 | 0.00 | 87 | 1019.3 |
| 20260507062937 | 12 | 196 | 9.7 | 32.2 | 0.00 | 0.00 | 0.00 | 87 | 1019.3 |
| 20260507062453 | 12 | 284 | 17.7 | 32.2 | 0.00 | 0.00 | 0.00 | 87 | 1019.1 |
| 20260507061920 | 12 | 296 | 12.9 | 27.4 | 0.00 | 0.00 | 0.00 | 87 | 1019.2 |
| 20260507061445 | 12 | 268 | 16.1 | 32.2 | 0.00 | 0.00 | 0.00 | 87 | 1019.1 |
| 20260507060952 | 12 | 264 | 20.9 | 35.4 | 0.00 | 0.00 | 0.00 | 86 | 1019.2 |
| 20260507060435 | 12 | 257 | 12.9 | 38.6 | 0.00 | 0.00 | 0.00 | 86 | 1019.2 |
| 20260507055921 | 12 | 268 | 22.5 | 38.6 | 0.00 | 0.00 | 0.00 | 86 | 1019.0 |
| 20260507055426 | 12 | 264 | 24.1 | 38.6 | 0.00 | 0.00 | 0.00 | 86 | 1019.0 |
| 20260507054933 | 12 | 295 | 14.5 | 30.6 | 0.00 | 0.00 | 0.00 | 86 | 1019.0 |
| 20260507054421 | 12 | 270 | 17.7 | 32.2 | 0.00 | 0.00 | 0.00 | 86 | 1019.0 |
| 20260507053929 | 12 | 268 | 19.3 | 33.8 | 0.00 | 0.00 | 0.00 | 86 | 1019.0 |
| 20260507053438 | 12 | 275 | 19.3 | 33.8 | 0.00 | 0.00 | 0.00 | 86 | 1019.1 |
| 20260507052925 | 12 | 273 | 19.3 | 32.2 | 0.00 | 0.00 | 0.00 | 86 | 1019.2 |
| 20260507052429 | 12 | 273 | 16.1 | 33.8 | 0.00 | 0.00 | 0.00 | 86 | 1019.1 |
| 20260507051936 | 12 | 256 | 16.1 | 30.6 | 0.00 | 0.00 | 0.00 | 86 | 1019.2 |
| 20260507051423 | 12 | 285 | 17.7 | 35.4 | 0.00 | 0.00 | 0.00 | 86 | 1019.2 |
| 20260507050959 | 12 | 268 | 16.1 | 35.4 | 0.00 | 0.00 | 0.00 | 86 | 1019.2 |
| 20260507050425 | 12 | 287 | 17.7 | 43.5 | 0.00 | 0.00 | 0.00 | 86 | 1019.1 |
| 20260507045930 | 12 | 265 | 24.1 | 43.5 | 0.00 | 0.00 | 0.00 | 86 | 1019.2 |
| 20260507045438 | 12 | 307 | 24.1 | 38.6 | 0.00 | 0.00 | 0.00 | 86 | 1019.2 |
| 20260507044923 | 12 | 280 | 22.5 | 43.5 | 0.00 | 0.00 | 0.00 | 86 | 1019.1 |
| 20260507044451 | 12 | 278 | 29.0 | 43.5 | 0.00 | 0.00 | 0.00 | 86 | 1019.2 |
| 20260507043936 | 12 | 282 | 29.0 | 45.1 | 0.00 | 0.00 | 0.00 | 86 | 1019.0 |
| 20260507043422 | 12 | 275 | 30.6 | 45.1 | 0.00 | 0.00 | 0.00 | 86 | 1019.0 |
| 20260507042930 | 12 | 256 | 25.7 | 43.5 | 0.00 | 0.00 | 0.00 | 85 | 1019.0 |
| 20260507042438 | 12 | 282 | 22.5 | 41.8 | 0.00 | 0.00 | 0.00 | 85 | 1018.8 |
| 20260507041925 | 12 | 256 | 22.5 | 49.9 | 0.00 | 0.00 | 0.00 | 85 | 1018.8 |
| 20260507041425 | 12 | 252 | 27.4 | 49.9 | 0.00 | 0.00 | 0.00 | 85 | 1018.8 |
| 20260507040933 | 12 | 283 | 32.2 | 43.5 | 0.00 | 0.00 | 0.00 | 85 | 1018.7 |
| 20260507040436 | 12 | 273 | 22.5 | 46.7 | 0.00 | 0.00 | 0.00 | 85 | 1018.7 |
| 20260507035950 | 12 | 233 | 24.1 | 43.5 | 0.00 | 0.00 | 0.00 | 85 | 1018.8 |
| 20260507035436 | 12 | 297 | 25.7 | 45.1 | 0.00 | 0.00 | 0.00 | 85 | 1018.8 |
| 20260507034943 | 12 | 283 | 27.4 | 45.1 | 0.00 | 0.00 | 0.00 | 85 | 1018.8 |
| 20260507034445 | 12 | 270 | 24.1 | 43.5 | 0.00 | 0.00 | 0.00 | 85 | 1018.8 |
| 20260507033929 | 12 | 275 | 25.7 | 43.5 | 0.00 | 0.00 | 0.00 | 85 | 1018.7 |
| 20260507033433 | 12 | 275 | 27.4 | 45.1 | 0.00 | 0.00 | 0.00 | 85 | 1018.6 |
| 20260507032938 | 12 | 301 | 29.0 | 45.1 | 0.00 | 0.00 | 0.00 | 85 | 1018.4 |
| 20260507032425 | 13 | 266 | 22.5 | 45.1 | 0.00 | 0.00 | 0.00 | 85 | 1018.4 |
| 20260507031933 | 13 | 273 | 27.4 | 49.9 | 0.00 | 0.00 | 0.00 | 84 | 1018.3 |
| 20260507031419 | 13 | 282 | 29.0 | 49.9 | 0.00 | 0.00 | 0.00 | 84 | 1018.3 |
| 20260507030926 | 13 | 272 | 30.6 | 45.1 | 0.00 | 0.00 | 0.00 | 84 | 1018.2 |
| 20260507030427 | 13 | 268 | 29.0 | 46.7 | 0.00 | 0.00 | 0.00 | 84 | 1018.3 |
| 20260507025933 | 13 | 283 | 33.8 | 46.7 | 0.00 | 0.00 | 0.00 | 84 | 1018.3 |
| 20260507025420 | 13 | 282 | 29.0 | 46.7 | 0.00 | 0.00 | 0.00 | 83 | 1018.3 |
| 20260507024928 | 13 | 290 | 27.4 | 48.3 | 0.00 | 0.00 | 0.00 | 83 | 1018.3 |
| 20260507024435 | 13 | 263 | 30.6 | 48.3 | 0.00 | 0.00 | 0.00 | 83 | 1018.1 |
| 20260507023922 | 13 | 259 | 27.4 | 48.3 | 0.00 | 0.00 | 0.00 | 83 | 1018.1 |
| 20260507023429 | 13 | 251 | 24.1 | 48.3 | 0.00 | 0.00 | 0.00 | 83 | 1018.2 |
| 20260507022934 | 13 | 297 | 24.1 | 45.1 | 0.00 | 0.00 | 0.00 | 82 | 1018.0 |
| 20260507022440 | 13 | 289 | 24.1 | 54.7 | 0.00 | 0.00 | 0.00 | 82 | 1018.0 |
| 20260507021955 | 13 | 290 | 29.0 | 54.7 | 0.00 | 0.00 | 0.00 | 82 | 1018.2 |
| 20260507021420 | 13 | 271 | 27.4 | 45.1 | 0.00 | 0.00 | 0.00 | 82 | 1018.1 |
| 20260507020927 | 13 | 278 | 30.6 | 45.1 | 0.00 | 0.00 | 0.00 | 81 | 1018.1 |
| 20260507020435 | 13 | 294 | 24.1 | 48.3 | 0.00 | 0.00 | 0.00 | 81 | 1018.1 |
| 20260507015920 | 14 | 280 | 27.4 | 48.3 | 0.00 | 0.00 | 0.00 | 80 | 1018.1 |
| 20260507015426 | 14 | 280 | 20.9 | 43.5 | 0.00 | 0.00 | 0.00 | 80 | 1018.1 |
| 20260507014928 | 14 | 278 | 29.0 | 43.5 | 0.00 | 0.00 | 0.00 | 80 | 1018.1 |
| 20260507014436 | 14 | 280 | 20.9 | 45.1 | 0.00 | 0.00 | 0.00 | 80 | 1018.0 |
| 20260507013951 | 14 | 278 | 27.4 | 43.5 | 0.00 | 0.00 | 0.00 | 79 | 1018.1 |
| 20260507013437 | 15 | 232 | 24.1 | 46.7 | 0.00 | 0.00 | 0.00 | 79 | 1018.0 |
| 20260507012939 | 15 | 263 | 30.6 | 49.9 | 0.00 | 0.00 | 0.00 | 79 | 1018.0 |
| 20260507012425 | 15 | 256 | 27.4 | 49.9 | 0.00 | 0.00 | 0.00 | 79 | 1017.9 |
| 20260507011929 | 15 | 282 | 20.9 | 45.1 | 0.00 | 0.00 | 0.00 | 79 | 1018.2 |
| 20260507011436 | 15 | 213 | 22.5 | 49.9 | 0.00 | 0.00 | 0.00 | 79 | 1018.2 |
| 20260507010923 | 15 | 276 | 33.8 | 49.9 | 0.00 | 0.00 | 0.00 | 78 | 1018.3 |
| 20260507010432 | 15 | 265 | 27.4 | 41.8 | 0.00 | 0.00 | 0.00 | 78 | 1018.3 |
| 20260507005938 | 15 | 280 | 24.1 | 41.8 | 0.00 | 0.00 | 0.00 | 77 | 1018.3 |
| 20260507005426 | 15 | 251 | 20.9 | 37.0 | 0.00 | 0.00 | 0.00 | 78 | 1018.3 |
| 20260507004932 | 15 | 280 | 22.5 | 43.5 | 0.00 | 0.00 | 0.00 | 78 | 1018.3 |
| 20260507004420 | 15 | 257 | 27.4 | 43.5 | 0.00 | 0.00 | 0.00 | 78 | 1018.2 |
| 20260507003925 | 15 | 261 | 22.5 | 43.5 | 0.00 | 0.00 | 0.00 | 78 | 1018.3 |
| 20260507003459 | 15 | 285 | 24.1 | 41.8 | 0.00 | 0.00 | 0.00 | 77 | 1018.3 |
| 20260507002925 | 15 | 273 | 22.5 | 41.8 | 0.00 | 0.00 | 0.00 | 77 | 1018.3 |
| 20260507002432 | 15 | 279 | 25.7 | 41.8 | 0.00 | 0.00 | 0.00 | 77 | 1018.3 |
| 20260507001938 | 16 | 297 | 17.7 | 37.0 | 0.00 | 0.00 | 0.00 | 77 | 1018.3 |
| 20260507001456 | 16 | 282 | 17.7 | 35.4 | 0.00 | 0.00 | 0.00 | 77 | 1018.4 |
| 20260507000920 | 16 | 287 | 22.5 | 35.4 | 0.00 | 0.00 | 0.00 | 77 | 1018.4 |
| 20260507000423 | 15 | 280 | 19.3 | 38.6 | 0.00 | 0.00 | 0.00 | 77 | 1018.4 |
| 20260506235927 | 15 | 265 | 25.7 | 40.2 | 0.00 | 0.00 | 0.00 | 77 | 1018.5 |
| 20260506235435 | 15 | 301 | 22.5 | 46.7 | 0.00 | 0.00 | 0.00 | 78 | 1018.4 |
| 20260506234922 | 15 | 278 | 25.7 | 46.7 | 0.00 | 0.00 | 0.00 | 78 | 1018.5 |
| 20260506234458 | 16 | 295 | 27.4 | 41.8 | 0.00 | 0.00 | 0.00 | 77 | 1018.4 |
| 20260506233924 | 15 | 261 | 22.5 | 45.1 | 0.00 | 0.00 | 0.00 | 78 | 1018.5 |
| 20260506233430 | 15 | 264 | 30.6 | 46.7 | 0.00 | 0.00 | 0.00 | 78 | 1018.7 |
| 20260506232933 | 15 | 270 | 30.6 | 46.7 | 0.00 | 0.00 | 0.00 | 77 | 1018.6 |
| 20260506232442 | 16 | 270 | 25.7 | 45.1 | 0.00 | 0.00 | 0.00 | 77 | 1018.6 |
| 20260506231927 | 16 | 295 | 30.6 | 45.1 | 0.00 | 0.00 | 0.00 | 77 | 1018.6 |
| 20260506231435 | 16 | 263 | 30.6 | 45.1 | 0.00 | 0.00 | 0.00 | 76 | 1018.6 |
| 20260506230923 | 16 | 283 | 24.1 | 45.1 | 0.00 | 0.00 | 0.00 | 76 | 1018.6 |
| 20260506230429 | 16 | 280 | 24.1 | 45.1 | 0.00 | 0.00 | 0.00 | 76 | 1018.8 |
| 20260506225933 | 16 | 256 | 22.5 | 40.2 | 0.00 | 0.00 | 0.00 | 76 | 1018.8 |
| 20260506225436 | 16 | 285 | 25.7 | 43.5 | 0.00 | 0.00 | 0.00 | 77 | 1018.8 |
| 20260506224921 | 16 | 238 | 24.1 | 49.9 | 0.00 | 0.00 | 0.00 | 76 | 1019.0 |
| 20260506224449 | 16 | 269 | 24.1 | 49.9 | 0.00 | 0.00 | 0.00 | 76 | 1019.0 |
| 20260506223934 | 16 | 259 | 19.3 | 41.8 | 0.00 | 0.00 | 0.00 | 77 | 1019.1 |
| 20260506223419 | 16 | 289 | 27.4 | 45.1 | 0.00 | 0.00 | 0.00 | 76 | 1019.1 |
| 20260506222925 | 16 | 291 | 17.7 | 45.1 | 0.00 | 0.00 | 0.00 | 77 | 1019.2 |
| 20260506222431 | 16 | 329 | 25.7 | 43.5 | 0.00 | 0.00 | 0.00 | 76 | 1019.2 |
| 20260506221935 | 16 | 268 | 19.3 | 43.5 | 0.00 | 0.00 | 0.00 | 76 | 1019.3 |
| 20260506221450 | 16 | 55 | 19.3 | 38.6 | 0.00 | 0.00 | 0.00 | 76 | 1019.5 |
| 20260506220937 | 16 | 285 | 22.5 | 46.7 | 0.00 | 0.00 | 0.00 | 76 | 1019.6 |
| 20260506220445 | 16 | 301 | 27.4 | 46.7 | 0.00 | 0.00 | 0.00 | 75 | 1019.6 |
| 20260506215951 | 16 | 268 | 25.7 | 37.0 | 0.00 | 0.00 | 0.00 | 75 | 1019.6 |
| 20260506215419 | 17 | 280 | 19.3 | 37.0 | 0.00 | 0.00 | 0.00 | 75 | 1019.7 |
| 20260506214921 | 16 | 283 | 22.5 | 45.1 | 0.00 | 0.00 | 0.00 | 75 | 1019.8 |
| 20260506214427 | 16 | 273 | 20.9 | 45.1 | 0.00 | 0.00 | 0.00 | 75 | 1019.7 |
| 20260506213935 | 16 | 299 | 24.1 | 38.6 | 0.00 | 0.00 | 0.00 | 74 | 1019.8 |
| 20260506213436 | 17 | 258 | 24.1 | 38.6 | 0.00 | 0.00 | 0.00 | 74 | 1019.8 |
| 20260506212922 | 17 | 270 | 19.3 | 37.0 | 0.00 | 0.00 | 0.00 | 74 | 1019.8 |
| 20260506212428 | 17 | 297 | 17.7 | 37.0 | 0.00 | 0.00 | 0.00 | 74 | 1019.8 |
| 20260506211936 | 17 | 282 | 20.9 | 35.4 | 0.00 | 0.00 | 0.00 | 74 | 1019.8 |
| 20260506211439 | 17 | 221 | 22.5 | 35.4 | 0.00 | 0.00 | 0.00 | 74 | 1019.8 |
| 20260506210927 | 17 | 271 | 16.1 | 32.2 | 0.00 | 0.00 | 0.00 | 74 | 1019.9 |
| 20260506210433 | 17 | 264 | 19.3 | 30.6 | 0.00 | 0.00 | 0.00 | 74 | 1019.9 |
| 20260506205919 | 17 | 283 | 16.1 | 30.6 | 0.00 | 0.00 | 0.00 | 74 | 1019.9 |
| 20260506205428 | 17 | 292 | 17.7 | 29.0 | 0.00 | 0.00 | 0.00 | 74 | 1019.9 |
| 20260506204936 | 17 | 292 | 20.9 | 30.6 | 0.00 | 0.00 | 0.00 | 74 | 1020.1 |
| 20260506204422 | 17 | 275 | 20.9 | 30.6 | 0.00 | 0.00 | 0.00 | 74 | 1020.0 |
| 20260506203928 | 17 | 268 | 17.7 | 29.0 | 0.00 | 0.00 | 0.00 | 74 | 1020.0 |
| 20260506203432 | 17 | 237 | 19.3 | 30.6 | 0.00 | 0.00 | 0.00 | 74 | 1020.0 |
| 20260506202934 | 17 | 278 | 20.9 | 30.6 | 0.00 | 0.00 | 0.00 | 74 | 1020.1 |
| 20260506202421 | 17 | 287 | 17.7 | 30.6 | 0.00 | 0.00 | 0.00 | 74 | 1020.1 |
| 20260506201927 | 17 | 261 | 17.7 | 27.4 | 0.00 | 0.00 | 0.00 | 73 | 1020.2 |
| 20260506201433 | 17 | 268 | 14.5 | 27.4 | 0.00 | 0.00 | 0.00 | 73 | 1020.2 |
| 20260506200921 | 17 | 295 | 19.3 | 27.4 | 0.00 | 0.00 | 0.00 | 73 | 1020.2 |
| 20260506200447 | 17 | 280 | 16.1 | 25.7 | 0.00 | 0.00 | 0.00 | 72 | 1020.3 |
| 20260506195927 | 18 | 329 | 16.1 | 22.5 | 0.00 | 0.00 | 0.00 | 72 | 1020.3 |
| 20260506195433 | 18 | 273 | 16.1 | 25.7 | 0.00 | 0.00 | 0.00 | 72 | 1020.4 |
| 20260506194921 | 18 | 307 | 12.9 | 25.7 | 0.00 | 0.00 | 0.00 | 72 | 1020.4 |
| 20260506194426 | 17 | 273 | 14.5 | 24.1 | 0.00 | 0.00 | 0.00 | 72 | 1020.4 |
| 20260506193932 | 17 | 299 | 16.1 | 24.1 | 0.00 | 0.00 | 0.00 | 71 | 1020.5 |
| 20260506193440 | 18 | 280 | 11.3 | 24.1 | 0.00 | 0.00 | 0.00 | 72 | 1020.4 |
| 20260506192956 | 18 | 252 | 11.3 | 24.1 | 0.00 | 0.00 | 0.00 | 71 | 1020.4 |
| 20260506192436 | 18 | 297 | 11.3 | 20.9 | 0.00 | 0.00 | 0.00 | 72 | 1020.5 |
| 20260506191923 | 18 | 257 | 12.9 | 20.9 | 0.00 | 0.00 | 0.00 | 71 | 1020.6 |
| 20260506191429 | 17 | 254 | 8.0 | 19.3 | 0.00 | 0.00 | 0.00 | 72 | 1020.6 |
| 20260506190936 | 17 | 274 | 11.3 | 19.3 | 0.00 | 0.00 | 0.00 | 72 | 1020.6 |
| 20260506190443 | 17 | 275 | 12.9 | 19.3 | 0.00 | 0.00 | 0.00 | 71 | 1020.6 |
| 20260506185920 | 18 | 316 | 11.3 | 19.3 | 0.00 | 0.00 | 0.00 | 71 | 1020.6 |
| 20260506185426 | 18 | 134 | 8.0 | 16.1 | 0.00 | 0.00 | 0.00 | 72 | 1020.6 |
| 20260506184928 | 17 | 251 | 8.0 | 19.3 | 0.00 | 0.00 | 0.00 | 72 | 1020.6 |
| 20260506184436 | 17 | 302 | 11.3 | 19.3 | 0.00 | 0.00 | 0.00 | 73 | 1020.6 |
| 20260506183952 | 17 | 284 | 8.0 | 19.3 | 0.00 | 0.00 | 0.00 | 73 | 1020.7 |
| 20260506183438 | 17 | 280 | 9.7 | 19.3 | 0.00 | 0.00 | 0.00 | 73 | 1020.7 |
| 20260506182923 | 17 | 280 | 8.0 | 17.7 | 0.00 | 0.00 | 0.00 | 74 | 1020.6 |
| 20260506182448 | 17 | 246 | 6.4 | 14.5 | 0.00 | 0.00 | 0.00 | 74 | 1020.6 |
| 20260506181935 | 16 | 297 | 6.4 | 14.5 | 0.00 | 0.00 | 0.00 | 75 | 1020.6 |
| 20260506181437 | 16 | 212 | 6.4 | 14.5 | 0.00 | 0.00 | 0.00 | 75 | 1020.6 |
| 20260506180925 | 16 | 306 | 8.0 | 17.7 | 0.00 | 0.00 | 0.00 | 74 | 1020.7 |
| 20260506180434 | 16 | 270 | 9.7 | 17.7 | 0.00 | 0.00 | 0.00 | 74 | 1020.6 |
| 20260506175921 | 16 | 300 | 8.0 | 16.1 | 0.00 | 0.00 | 0.00 | 73 | 1020.6 |
| 20260506175426 | 17 | 301 | 8.0 | 16.1 | 0.00 | 0.00 | 0.00 | 73 | 1020.6 |
| 20260506174934 | 17 | 7 | 1.6 | 9.7 | 0.00 | 0.00 | 0.00 | 74 | 1020.6 |
| 20260506174420 | 16 | 256 | 4.8 | 11.3 | 0.00 | 0.00 | 0.00 | 73 | 1020.6 |
| 20260506173926 | 16 | 341 | 3.2 | 11.3 | 0.00 | 0.00 | 0.00 | 74 | 1020.6 |
| 20260506173430 | 16 | 345 | 8.0 | 12.9 | 0.00 | 0.00 | 0.00 | 74 | 1020.6 |
| 20260506172936 | 16 | 194 | 4.8 | 14.5 | 0.00 | 0.00 | 0.00 | 74 | 1020.6 |
| 20260506172422 | 16 | 282 | 6.4 | 14.5 | 0.00 | 0.00 | 0.00 | 74 | 1020.7 |
| 20260506171928 | 16 | 262 | 4.8 | 11.3 | 0.00 | 0.00 | 0.00 | 75 | 1020.7 |
| 20260506171431 | 16 | 275 | 4.8 | 12.9 | 0.00 | 0.00 | 0.00 | 74 | 1020.7 |
| 20260506170919 | 16 | 316 | 8.0 | 12.9 | 0.00 | 0.00 | 0.00 | 74 | 1020.8 |
| 20260506170425 | 16 | 192 | 3.2 | 11.3 | 0.00 | 0.00 | 0.00 | 74 | 1020.7 |
| 20260506165946 | 16 | 40 | 6.4 | 11.3 | 0.00 | 0.00 | 0.00 | 74 | 1020.8 |
| 20260506165501 | 16 | 62 | 8.0 | 11.3 | 0.00 | 0.00 | 0.00 | 75 | 1020.7 |
| 20260506164955 | 16 | 88 | 3.2 | 12.9 | 0.00 | 0.00 | 0.00 | 75 | 1020.7 |
| 20260506164440 | 16 | 69 | 6.4 | 12.9 | 0.00 | 0.00 | 0.00 | 74 | 1020.7 |
| 20260506163955 | 16 | 320 | 6.4 | 16.1 | 0.00 | 0.00 | 0.00 | 74 | 1020.7 |
| 20260506163420 | 16 | 351 | 8.0 | 16.1 | 0.00 | 0.00 | 0.00 | 73 | 1020.6 |
| 20260506162940 | 16 | 219 | 1.6 | 9.7 | 0.00 | 0.00 | 0.00 | 74 | 1020.7 |
| 20260506162445 | 16 | 306 | 6.4 | 9.7 | 0.00 | 0.00 | 0.00 | 74 | 1020.7 |
| 20260506161930 | 16 | 167 | 3.2 | 12.9 | 0.00 | 0.00 | 0.00 | 75 | 1020.6 |
| 20260506161435 | 16 | 196 | 3.2 | 12.9 | 0.00 | 0.00 | 0.00 | 75 | 1020.8 |
| 20260506160921 | 15 | 275 | 4.8 | 8.0 | 0.00 | 0.00 | 0.00 | 75 | 1020.7 |
| 20260506160426 | 15 | 309 | 4.8 | 8.0 | 0.00 | 0.00 | 0.00 | 76 | 1020.7 |